Regional Weather Roundup
Issued by NWS Newport/Morehead, NC

Current Version | Previous Version | Text Only | Print | Product List | Glossary On
Versions: 1 2 3 4 5 6 7 8 9 10 11 12 13 14 15 16 17 18 19 20 21 22 23 24 25 26 27 28 29 30 31 32 33 34 35 36 37 38 39 40 41 42 43 44 45 46 47 48 49 50
000
ASUS42 KMHX 240213
RWRMHX
WEATHER ROUNDUP FOR EASTERN NORTH CAROLINA
NATIONAL WEATHER SERVICE NEWPORT/MOREHEAD CITY NC
1000 PM EDT WED MAY 23 2018

NOTE: "FAIR" INDICATES FEW OR NO CLOUDS BELOW 12,000 FEET
WITH NO SIGNIFICANT WEATHER AND/OR OBSTRUCTIONS TO VISIBILITY

NCZ015>017-031-032-045>047-102-103-240300-
NORTH COAST

CITY           SKY/WX    TMP DP  RH WIND       PRES   REMARKS
EDENTON        FAIR      72  70  92 S5        30.06S
ELIZABETH CITY FAIR      70  70 100 CALM      30.06R
KITTY HAWK     FAIR      69  69  99 CALM      30.05R
MANTEO         FAIR      71  68  90 NW3       30.06R

$$

NCZ045>047-081-094-103-104-240300-
CENTRAL COAST

CITY           SKY/WX    TMP DP  RH WIND       PRES   REMARKS
FRISCO         HVY RAIN  68  67  96 S9G21     30.06F FOG

$$

NCZ095-097-098-100-101-240300-
SOUTHERN COAST

CITY           SKY/WX    TMP DP  RH WIND       PRES   REMARKS
BEAUFORT       FAIR      75  71  87 SW13      30.06R
CEDAR ISLAND   NOT AVBL
JACKSONVILLE   FAIR      75  72  90 SW6       30.05R
PINEY ISLAND   NOT AVBL
WILMINGTON     MOCLDY    75  65  70 SW7       30.08R


$$

NCZ011>013-027>030-043-044-078>080-089-090>093-098-240300-
COASTAL PLAIN

CITY           SKY/WX    TMP DP  RH WIND       PRES   REMARKS
AHOSKIE        FAIR      71  69  96 CALM      30.06R
CLINTON        FAIR      73  73 100 CALM      30.06R
ELIZABETHTOWN  FAIR      76  69  79 SW7       30.07R
GOLDSBORO      FAIR      76  71  84 S6        30.03R
GREENVILLE     FAIR      77  72  83 E10       30.07R
HAVELOCK       NOT AVBL
KENANSVILLE    MOCLDY    72  70  94 SW3       30.06R
KINSTON        FAIR      75  71  87 SW5       30.05R
NEW BERN       FAIR      73  72  96 CALM      30.07R
RICHLANDS      FAIR      74  72  93 SW6       30.06R
ROCKY MOUNT    FAIR      72  68  87 CALM      30.04S
WASHINGTON     HVY RAIN  69  69  98 CALM      30.06S
WHITEVILLE     FAIR      76  71  86 SW3       30.06R

$$

AMZ130-135-150-152-154-156-158-170-250-252-270-ANZ085-086-088-633-658-670-240300-
MARINE OBSERVATIONS

STATION/POSITION TIME  TEMP    WIND        PRES    WAVE   SWELL
                       AIR SEA DIR/SP/G            HT/PER HT/PER
                 (UTC) (F)     (DEG/KT/KT) (MB)    (FT/S) (FT/S)
CHESAPEAKE LIGHT NOT AVBL
64 E VA BEACH    0150   71 70  270/  4/  6 1017.7    4/ 5   3/ 5
DUCK             0148   73 67  310/  2/  3 1017.3
2 E DUCK         0200      66                N/A     2/ 8
OREGON INLET     0142   71 79   60/  2/  2 1017.2
13E OREGON INLT  0148      70                N/A     3/ 6   3/ 6
HATTERAS CG      0148   68 76  130/ 11/ 19 1017.7
DIAMOND BUOY     0150   76     280/ 10/ 16 1018.5    5/ 6   5/ 6
CAPE LOOKOUT     0200          220/ 10/ 14 1018.1
BEAUFORT LAB     0148   75 78  230/  5/ 11 1018.1
30 SE NEW RVR IN 0108   76     220/ 14/ 19 1017.7
30 SE NEW RVR IN 0200      76                N/A     5/ 5
27 SE WRIGHTSVLE 0108   76 75  230/ 16/ 23 1018.1
5 SE WRIGHTSVLE  0108   74 73  320/ 14/ 17 1016.9
225 S CAPE HAT   0150                      1020.5    3/ 8   3/ 8
41 SE CHARLESTON 0140      75  210/  6/  8 1018.9

$$



USA.gov is the U.S. government's official web portal to all federal, state and local government web resources and services.